Regional Weather Roundup
Issued by NWS

Home | Current Version | Previous Version | Text Only | Print | Product List | Glossary On
Versions: 1 2 3 4 5 6 7 8 9 10 11 12 13 14 15 16 17 18 19 20 21 22 23 24 25 26 27 28 29 30 31 32 33 34 35 36 37 38 39 40 41 42 43 44 45 46 47 48 49 50
000
ASUS43 KTOP 131508
RWRKS

WEATHER ROUNDUP FOR KANSAS
NATIONAL WEATHER SERVICE GOODLAND KS
900 AM CST WED DEC 13 2017

NOTE:  "FAIR" INDICATES FEW OR NO CLOUDS BELOW 12,000 FEET WITH NO
SIGNIFICANT WEATHER AND/OR OBSTRUCTIONS TO VISIBILITY.

KSZ001>006-013>018-027>032-041>047-131600-
NORTHWEST KANSAS

CITY           SKY/WX    TMP DP  RH WIND       PRES   REMARKS
GOODLAND       CLOUDY    45  13  27 NW15      30.07R
HAYS           CLOUDY    48  18  30 NW12      29.97R
HILL CITY      PTCLDY    45  16  31 W10       29.99R
RUSSELL        CLOUDY    50  20  30 NW18G25   29.94R
$$

KSZ061>065-074>080-084>089-131600-
SOUTHWEST KANSAS

CITY           SKY/WX    TMP DP  RH WIND       PRES   REMARKS
DODGE CITY     SUNNY     45  15  30 NW13      30.01R
ELKHART        SUNNY     50  18  28 N18       30.06S
GARDEN CITY    SUNNY     41  14  33 NW13      30.03R
LIBERAL        SUNNY     47  13  25 N20       30.03R
PRATT          SUNNY     45  16  31 NW14      29.97R
$$

KSZ066>073-081>083-090>101-131600-
SOUTHEAST KANSAS

CITY           SKY/WX    TMP DP  RH WIND       PRES   REMARKS
CHANUTE        SUNNY     40  27  59 W6        29.84R
COFFEYVILLE    SUNNY     38  28  67 SW7       29.88R
HUTCHINSON     SUNNY     44  21  40 NW13      29.91R
MEDICINE LODGE   N/A     49  19  30 N13G24    29.94R
NEWTON         SUNNY     44  20  38 NW16      29.89R
PARSONS        SUNNY     37  29  72 SW6       29.87R
WICHITA INTL   MOSUNNY   49  23  36 NW15      29.89R
WICHITA JABRA  SUNNY     47  21  35 NW16      29.88R
WICHITA MCCONL SUNNY     45  20  37 NW13      29.88R
WINFIELD       SUNNY     37  29  72 W3        29.91R
$$

KSZ007>012-019>026-033>040-048>060-102>105-131600-
NORTHEAST KANSAS

CITY           SKY/WX    TMP DP  RH WIND       PRES   REMARKS
CONCORDIA      SUNNY     53  20  27 NW18G30   29.86R
EMPORIA        CLOUDY    43  22  43 W12       29.83R
LAWRENCE       CLOUDY    39  27  62 NW5       29.77R
MANHATTAN      CLOUDY    40  24  53 SW10      29.83R WCI  33
MARYSVILLE     CLOUDY    54  23  30 NW25G38   29.79R
OLATHE IND     CLOUDY    40  26  57 W9        29.77R
OLATHE EXE     SUNNY     39  26  59 W10       29.75R WCI  32
SALINA         CLOUDY    50  22  33 NW16      29.89R
TOPEKA BILLARD CLOUDY    44  24  45 W12       29.78R
TOPEKA FORBES  CLOUDY    50  23  34 NW21      29.77R
$$




USA.gov is the U.S. government's official web portal to all federal, state and local government web resources and services.